Southern Belle Race - Training

Station: Juliette - T Race

Distance: 34.003 Miles    

Release: 17-Oct-2020 08:30

Weather Release:    Arrival:

Wind at Release:     Wind at Arrival:

Temp at Release: °    Temp at Arrival: °

Lofts: 246

Birds: 722

Clocked: 724

12689 JEDD did not train.
Drops Pos Breeder Pigeon Name Color Sex Ent Arrival Speed To Win Elg PdP100P200
1 Clausing - FL 0174-IF20-CLAU BB H 1 09:19:58.70 1197.410 00:00:00 Yes
2 Jimmy Zheng Loft 2 - MS 0174-AU20-JIMM BB C 1 09:19:58.91 1197.326 00:00:00 Yes
3 Erp-Duviel Team - GA 2001-AU20-ERP G×E BC H 1 09:20:00.48 1196.700 00:00:02 Yes
4 Arandas Loft - TX 7677-AU20-JEDD BB H 1 09:20:03.03 1195.683 00:00:04 Yes
5 Whell's Loft - CA 16318-AU20-AA “small But Terrible 1 BCWF H 1 09:20:03.06 1195.671 00:00:04 Yes
6 Eastern Pearl Loft - VA 0830-AU20-EPL 🈚️量830 BB H 1 09:20:03.54 1195.480 00:00:05 Yes
7 Radames Family Loft - FL 10873-AU20-GHC BC H 1 09:20:04.26 1195.194 00:00:06 Yes
8 Shawnie Murphy - MI 0105-AU20-RIXI BB H 1 09:20:05.22 1194.812 00:00:07 Yes
9 Warren Sawyers Loft - FL 1777-IF20-JAX 2ndchance@1st BB H 1 09:20:05.32 1194.772 00:00:07 Yes
10 Zulu Synd. - VA 0424-IF20-MAIE RC C 1 09:20:05.34 1194.764 00:00:07 Yes
11 A-Lo-Loft - NY 0063-AU20-ALOL ☯️2888☯️ BBWF H 1 09:20:07.13 1194.053 00:00:08 Yes
12 Vegga - TX 0075-AU20-VEGG 🔺21899x19227 🔺 BB C 1 09:20:07.24 1194.009 00:00:09 Yes
13 Shawnie Murphy - MI 0163-AU20-RIXI BBSP H 2 09:20:07.40 1193.946 00:00:09 Yes
14 Peters - GA 0013-AU20-PETE Red Baron RC H 1 09:20:07.71 1193.823 00:00:09 Lost
15 A P C Loft - TX 20071-AU20-APC BB H 1 09:20:07.84 1193.771 00:00:09 Yes
16 J & L Loft - GA 0046-AU20-JL BB H 1 09:20:07.85 1193.767 00:00:09 Lost
17 Xiao Loft - WI 3099-AU20-RAC BC H 1 09:20:08.20 1193.628 00:00:10 Lost
18 Vegga - TX 0083-AU20-VEGG 🔺77xBM🔺 BC C 2 09:20:09.41 1193.149 00:00:11 Yes
19 Dons Loft - SC 0125-IF20-CVR BC H 1 09:20:09.67 1193.045 00:00:11 Yes
20 R M C Loft - CA 300183-AU20-RMC BB C 1 09:20:11.33 1192.388 00:00:13 Yes
21 Tao Loft 2 - FL 19035-IF20-TAO BB H 1 09:20:11.68 1192.249 00:00:13 Yes
22 *j H C Loft* - AL 6675-AU20-ARPU SIL H 1 09:20:12.17 1192.055 00:00:13 Lost
23 Custom Crates By Jerry - TX 2676-AU20-AA Souther Queen BB H 1 09:20:12.77 1191.818 00:00:14 Yes
24 Barry Karas - MI 0518-AU20-NBC RC C 1 09:20:12.85 1191.786 00:00:14 Yes
25 Rick Derrow - WV 18194-AU20-FOYS Canaan Valley CHOC H 1 09:20:12.90 1191.766 00:00:14 Yes
26 Candela D Pigeon Loft - GA 0023-AU20-NEA El Rey BCWF H 1 09:20:13.04 1191.711 00:00:14 Yes
27 Bionic Loft - LA 0010-AU20-CAJU BC H 1 09:20:13.62 1191.482 00:00:15 Yes
28 Taranto Loft 2 - NJ 2072-IF20-FJT RC H 1 09:20:14.63 1191.083 00:00:16 Yes
29 Holts Loft - NC 11679-AU20-AA SMOK H 1 09:20:14.73 1191.043 00:00:16 Yes
30 Zhengloft - FL 0112-IF20-ZHEN BC H 1 09:20:15.08 1190.905 00:00:16 Yes
31 Cherokee Loft - MI 0622-AU20-CHER 437x3093 wonder-polish BB H 1 09:20:15.33 1190.806 00:00:17 Yes
32 Churn Creek Loft - CA 0405-AU20-RBPC Shrek BB C 1 09:20:15.46 1190.755 00:00:17 Yes
33 Tongol 11 - NV 22831-AU20-ARPU PANDEMIC BB C 1 09:20:16.77 1190.238 00:00:18 Yes
34 Wingsnwindloft - SC 1501-AU20-BISO " Tornado " BBWF H 1 09:20:17.24 1190.052 00:00:19 Yes
35 Alas De Oro - NV 71021-IF20-E BB H 1 09:20:17.72 1189.863 00:00:19 Yes
36 Liqing Ni Loft - NY 0034-AU20-YANG 41x85🦄🦄🦄 BCWF C 1 09:20:18.34 1189.618 00:00:20 Yes
37 Liqing Ni Loft - NY 0031-AU20-YANG 219x4534🦄🦄🦄 PEN H 2 09:20:18.37 1189.607 00:00:20 Yes
38 Mc Laughlin Lofts - MA 0851-AU20-MCLO BB C 1 09:20:18.45 1189.575 00:00:20 Yes
39 Arch Haven Loft - IN 2038-AU20-ARCH BC H 1 09:20:19.43 1189.189 00:00:21 Yes
40 Alfa Loft Syndicate - NC 0067-AU20-WNC BB C 1 09:20:19.70 1189.083 00:00:21 Yes
41 Ken Family Loft - FL 0511-AU20-XKL BBWF C 1 09:20:21.26 1188.469 00:00:23 Yes
42 Holy Spirit Loft - GA 1542-AU20-NEA H 1 09:20:21.61 1188.331 00:00:23 Yes
43 Alp Race Team - CH 8260-CH20-CH BB H 1 09:20:21.86 1188.233 00:00:23 Yes
44 Flying D Loft - TX 0983-IF20-FOYS Cu 6784- Foys 9425 BC H 1 09:20:22.06 1188.154 00:00:23 Yes
45 Clausing - FL 0173-IF20-CLAU Phoebe Wyatt BC H 2 09:20:22.44 1188.005 00:00:24 Yes
46 El Santuario - GA 44726-AU20-ARPU BC C 1 09:20:23.41 1187.624 00:00:25 Yes
47 Greek Connection - SC 0035-AU20-GRK 527 BBWF H 1 09:20:23.56 1187.565 00:00:25 Yes
48 Medina Loft Fl - FL 2004-AU20-MEDI BB H 1 09:20:23.69 1187.514 00:00:25 Yes
49 Kenny Chen & Patrick Kwan - FL 2030-AU20-KWAN BB H 1 09:20:24.51 1187.192 00:00:26 Yes
50 Da-Dong - WI 2906-AU20-RAC 7020-845 BB H 1 09:20:25.21 1186.917 00:00:27 Yes
51 Sugar Loft - FL 1202-AU20-CAPE MR SUGAR BC C 1 09:20:25.22 1186.913 00:00:27 Yes
52 Zulu Synd. - VA 0429-IF20-MAIE BBWF C 2 09:20:25.37 1186.854 00:00:27 Yes
53 Euro Dead - CA 29162-AU20-JEDD S-7 C-6659 DC H 1 09:20:25.69 1186.729 00:00:27 Yes
54 Xiao Loft - WI 3200-AU20-RAC BB H 2 09:20:25.83 1186.674 00:00:27 Yes
55 Arandas Loft - TX 7691-AU20-JEDD BC H 2 09:20:26.81 1186.290 00:00:28 Yes
56 Shi Loft - PA 1752-IF20-ERIE BB H 1 09:20:27.97 1185.835 00:00:29 Lost
57 Tian Loft - FL 30183-AU20-ARPU BBWF H 1 09:20:28.10 1185.784 00:00:29 Yes
58 Nadine,klaus,fisher - MI 81806-AU20-ARPU BBPI H 1 09:20:28.71 1185.545 00:00:30 Yes
59 Flying Dragon Loft - GA 0818-AU20-GA BB H 1 09:20:29.56 1185.213 00:00:31 Yes
60 Tres Coronas Loft - CA 20570-AU20-SYV Hero Of The Day BBWF H 1 09:20:29.93 1185.068 00:00:31 Yes
61 Flying D Loft - TX 0965-IF20-FOYS Foys 29800- Peters 64 BBWF H 2 09:20:30.52 1184.837 00:00:32 Yes
62 Family Loft - IN 1095-AU20-CHAM BBSP H 1 09:20:30.75 1184.747 00:00:32 Yes
63 A H C Loft - FL 0357-AU20-NWFI 🍊🍊47265xT1312🍊 BB H 1 09:20:31.23 1184.560 00:00:33 Yes
64 Perez Family Loft Lugo - GA 1012-AU20-NEA Albertana PEN H 1 09:20:31.70 1184.376 00:00:33 Lost
65 Clausing - FL 0040-IF20-CLAU BB H 3 09:20:32.60 1184.025 00:00:34 Yes
66 Candela D Pigeon Loft - GA 0014-AU20-NEA Mariposa BCWF H 2 09:20:33.89 1183.521 00:00:35 Yes
67 R M C Loft - CA 300165-AU20-RMC BB H 2 09:20:34.99 1183.092 00:00:36 Yes
68 Erp-Duviel Team - GA 2035-AU20-ERP BB H 2 09:20:35.45 1182.913 00:00:37 Yes
69 Arch Haven Loft - IN 2076-AU20-ARCH BB H 2 09:20:35.68 1182.823 00:00:37 Yes
70 Dj Loft Of Utah - UT 0034-AU20-HASH LAST SAMURAI BCWF H 1 09:20:36.17 1182.632 00:00:37 Lost
71 Best Loft - IL 0087-AU20-BEST BC H 1 09:20:36.41 1182.539 00:00:38 Yes
72 David Trunnell Lofts - ME 0055-IF20-TRUN BC H 1 09:20:36.53 1182.492 00:00:38 Lost
73 Jemi Pancake Loft - TN 9080-AU20-NASH SIL C 1 09:20:37.11 1182.266 00:00:38 Yes
74 Mesopotamia Loft - MN 1733-AU20-VITA DC H 1 09:20:37.62 1182.068 00:00:39 Missing
75 Fl Lin Loft - FL 1857-AU20-ARPU BC H 1 09:20:37.98 1181.928 00:00:39 Yes
76 Barry Yu Loft - TX 0190-AU20-YU BB H 1 09:20:38.12 1181.873 00:00:39 Yes
77 Calsyn & Scroggins - IL 0737-AU20-RRV BC H 1 09:20:38.71 1181.644 00:00:40 Yes
78 Barry & Shawnie - MI 1000-AU20-CDR CHGR H 1 09:20:38.73 1181.636 00:00:40 Yes
79 John R Helms - AL 1032-AU20-HELM BB H 1 09:20:39.76 1181.236 00:00:41 Yes
80 AFL - GA 0201-IF20-AFL 697 GFL x 849 GFL BB C 1 09:20:39.90 1181.181 00:00:41 Yes
81 Shi Loft - PA 1776-IF20-ERIE BB H 2 09:20:40.14 1181.088 00:00:41 Lost
82 Zulu Synd. - VA 0480-IF20-MAIE RC H 3 09:20:40.27 1181.038 00:00:42 Yes
83 Genesis Syndicate Loft - AZ 0216-US20-GEN SIL C 1 09:20:40.51 1180.944 00:00:42 Yes
84 Candela D Pigeon Loft - GA 0035-AU20-NEA Red Witch SIL H 3 09:20:41.35 1180.618 00:00:43 Lost
85 C F L - LA 0959-AU20-CFL BC H 1 09:20:41.48 1180.568 00:00:43 Yes
86 M & M Lofts - GA 2114-AU20-NEA RC H 1 09:20:42.49 1180.176 00:00:44 Yes
87 Loft By Augustine - KS 0115-AU20-SWK BKWF H 1 09:20:43.43 1179.811 00:00:45 Lost
88 A-Lo-Loft - NY 0057-AU20-ALOL ☯️1462☯️ BBWF H 2 09:20:43.68 1179.714 00:00:45 Yes
89 Redtex - TX 0218-AU20-RTEX army of one BB H 1 09:20:44.85 1179.261 00:00:46 Yes
90 Marengo Creek Farms - GA 3562-AU20-MCF BB H 1 09:20:45.23 1179.114 00:00:47 Yes
91 ***bird Love To Fly*** - CA 1356908-BE20-BELG GRIZ C 1 09:20:45.47 1179.021 00:00:47 Yes
92 Milestone Loft - CA 1403-AU20-SD BC H 1 09:20:46.31 1178.696 00:00:48 Yes
93 ***bird Love To Fly*** - CA 1356913-BE20-BELG DC H 2 09:20:46.44 1178.646 00:00:48 Yes
94 Clausing - FL 0046-IF20-CLAU DC C 4 09:20:47.90 1178.081 00:00:49 Lost
95 New York Winter Loft - NY 350656-CH20-CHN BBPI H 1 09:20:48.01 1178.038 00:00:49 Yes
96 B.B.& W. - CA 20030-AU20-ARPU Littlenir BCWF H 1 09:20:48.40 1177.888 00:00:50 Yes
97 Whell's Loft - CA 16312-AU20-AA “BigBird” BB C 2 09:20:49.10 1177.617 00:00:50 Yes
98 Y Mtn Loft - TN 26682-AU20-YMTN BC H 1 09:20:49.85 1177.328 00:00:51 Yes
99 Tao Loft - MN 21052-AU20-AA BB H 1 09:20:50.21 1177.189 00:00:52 Yes
100 Barry & Shawnie - MI 72536-IF20-E BC H 2 09:20:52.01 1176.495 00:00:53 Yes

There are 653 bird records

Note: These Race Results are unofficial and subject to change until verified by the Race Committee and declared final.